Time,TemperatureF,DewpointF,PressureIn,WindDirection,WindDirectionDegrees,WindSpeedMPH,WindSpeedGustMPH,Humidity,HourlyPrecipIn,Conditions,Clouds,dailyrainin,SolarRadiationWatts/m^2,SoftwareType,DateUTC
2013-07-01 00:00:00,62.0,57.0,-100.00,NE,45,1.0,-999.0,82,-99.99,,,-99.99,0.000000,,2013-07-01 04:00:00,
2013-07-01 00:32:00,62.0,57.0,-100.00,NE,45,1.0,-999.0,82,-99.99,,,-99.99,0.000000,,2013-07-01 04:32:00,
2013-07-01 00:43:00,62.0,57.0,-100.00,NE,45,1.0,-999.0,82,-99.99,,,-99.99,0.000000,,2013-07-01 04:43:00,
2013-07-01 00:53:00,62.0,57.0,-100.00,NE,45,1.0,-999.0,82,-99.99,,,-99.99,0.000000,,2013-07-01 04:53:00,
2013-07-01 01:00:00,62.0,53.0,-100.00,NE,45,2.0,-999.0,73,-99.99,,,-99.99,0.000000,,2013-07-01 05:00:00,
2013-07-01 01:42:00,62.0,53.0,-100.00,NE,45,2.0,-999.0,73,-99.99,,,-99.99,0.000000,,2013-07-01 05:42:00,
2013-07-01 01:52:00,62.0,53.0,-100.00,NE,45,2.0,-999.0,73,-99.99,,,-99.99,0.000000,,2013-07-01 05:52:00,
2013-07-01 02:00:00,62.0,48.0,-100.00,ENE,67,3.0,-999.0,59,-99.99,,,-99.99,0.000000,,2013-07-01 06:00:00,
2013-07-01 02:43:00,62.0,48.0,-100.00,ENE,67,3.0,-999.0,59,-99.99,,,-99.99,0.000000,,2013-07-01 06:43:00,
2013-07-01 02:53:00,62.0,48.0,-100.00,ENE,67,3.0,-999.0,59,-99.99,,,-99.99,0.000000,,2013-07-01 06:53:00,
2013-07-01 03:00:00,60.0,48.0,-100.00,NE,45,3.0,-999.0,63,-99.99,,,-99.99,0.000000,,2013-07-01 07:00:00,
2013-07-01 03:43:00,60.0,48.0,-100.00,NE,45,3.0,-999.0,63,-99.99,,,-99.99,0.000000,,2013-07-01 07:43:00,
2013-07-01 03:53:00,60.0,48.0,-100.00,NE,45,3.0,-999.0,63,-99.99,,,-99.99,0.000000,,2013-07-01 07:53:00,
2013-07-01 04:00:00,59.0,49.0,-100.00,ENE,67,3.0,-999.0,67,-99.99,,,-99.99,0.000000,,2013-07-01 08:00:00,
2013-07-01 04:43:00,59.0,49.0,-100.00,ENE,67,3.0,-999.0,67,-99.99,,,-99.99,0.000000,,2013-07-01 08:43:00,
2013-07-01 04:52:00,59.0,49.0,-100.00,ENE,67,3.0,-999.0,67,-99.99,,,-99.99,0.000000,,2013-07-01 08:52:00,
2013-07-01 05:00:00,59.0,50.0,-100.00,NE,45,4.0,-999.0,70,-99.99,,,-99.99,0.000000,,2013-07-01 09:00:00,
2013-07-01 05:43:00,59.0,50.0,-100.00,NE,45,4.0,-999.0,70,-99.99,,,-99.99,0.000000,,2013-07-01 09:43:00,
2013-07-01 05:53:00,59.0,50.0,-100.00,NE,45,4.0,-999.0,70,-99.99,,,-99.99,0.000000,,2013-07-01 09:53:00,
2013-07-01 06:00:00,59.0,51.0,-100.00,NE,45,4.0,-999.0,74,-99.99,,,-99.99,0.000000,,2013-07-01 10:00:00,
2013-07-01 06:43:00,59.0,51.0,-100.00,NE,45,4.0,-999.0,74,-99.99,,,-99.99,0.000000,,2013-07-01 10:43:00,
2013-07-01 06:52:00,59.0,51.0,-100.00,NE,45,4.0,-999.0,74,-99.99,,,-99.99,0.000000,,2013-07-01 10:52:00,
2013-07-01 07:00:00,60.0,52.0,-100.00,ENE,67,4.0,-999.0,74,-99.99,,,-99.99,10.440000,,2013-07-01 11:00:00,
2013-07-01 07:43:00,60.0,52.0,-100.00,ENE,67,4.0,-999.0,74,-99.99,,,-99.99,10.440000,,2013-07-01 11:43:00,
2013-07-01 07:52:00,60.0,52.0,-100.00,ENE,67,4.0,-999.0,74,-99.99,,,-99.99,10.440000,,2013-07-01 11:52:00,
2013-07-01 08:00:00,61.0,52.0,-100.00,NE,45,4.0,-999.0,72,-99.99,,,-99.99,63.799999,,2013-07-01 12:00:00,
2013-07-01 08:33:00,61.0,52.0,-100.00,NE,45,4.0,-999.0,72,-99.99,,,-99.99,63.799999,,2013-07-01 12:33:00,
2013-07-01 08:43:00,61.0,52.0,-100.00,NE,45,4.0,-999.0,72,-99.99,,,-99.99,63.799999,,2013-07-01 12:43:00,
2013-07-01 08:53:00,61.0,52.0,-100.00,NE,45,4.0,-999.0,72,-99.99,,,-99.99,63.799999,,2013-07-01 12:53:00,
2013-07-01 09:00:00,63.0,52.0,-100.00,ENE,67,5.0,-999.0,69,-99.99,,,-99.99,131.080002,,2013-07-01 13:00:00,
2013-07-01 09:43:00,63.0,52.0,-100.00,ENE,67,5.0,-999.0,69,-99.99,,,-99.99,131.080002,,2013-07-01 13:43:00,
2013-07-01 09:53:00,63.0,52.0,-100.00,ENE,67,5.0,-999.0,69,-99.99,,,-99.99,131.080002,,2013-07-01 13:53:00,
2013-07-01 10:00:00,64.0,53.0,-100.00,NE,45,4.0,-999.0,67,-99.99,,,-99.99,148.479996,,2013-07-01 14:00:00,
2013-07-01 10:43:00,64.0,53.0,-100.00,NE,45,4.0,-999.0,67,-99.99,,,-99.99,148.479996,,2013-07-01 14:43:00,
2013-07-01 10:53:00,64.0,53.0,-100.00,NE,45,4.0,-999.0,67,-99.99,,,-99.99,148.479996,,2013-07-01 14:53:00,
2013-07-01 11:00:00,66.0,54.0,-100.00,ENE,67,4.0,-999.0,65,-99.99,,,-99.99,255.199997,,2013-07-01 15:00:00,
2013-07-01 11:43:00,66.0,54.0,-100.00,ENE,67,4.0,-999.0,65,-99.99,,,-99.99,255.199997,,2013-07-01 15:43:00,
2013-07-01 11:53:00,66.0,54.0,-100.00,ENE,67,4.0,-999.0,65,-99.99,,,-99.99,255.199997,,2013-07-01 15:53:00,
2013-07-01 12:00:00,66.0,55.0,-100.00,ENE,67,3.0,-999.0,66,-99.99,,,-99.99,197.199997,,2013-07-01 16:00:00,
2013-07-01 12:44:00,66.0,55.0,-100.00,ENE,67,3.0,-999.0,66,-99.99,,,-99.99,197.199997,,2013-07-01 16:44:00,
2013-07-01 12:53:00,66.0,55.0,-100.00,ENE,67,3.0,-999.0,66,-99.99,,,-99.99,197.199997,,2013-07-01 16:53:00,
2013-07-01 13:00:00,66.0,57.0,-100.00,ENE,67,3.0,-999.0,72,-99.99,,,-99.99,148.479996,,2013-07-01 17:00:00,
2013-07-01 13:43:00,66.0,57.0,-100.00,ENE,67,3.0,-999.0,72,-99.99,,,-99.99,148.479996,,2013-07-01 17:43:00,
2013-07-01 13:53:00,66.0,57.0,-100.00,ENE,67,3.0,-999.0,72,-99.99,,,-99.99,148.479996,,2013-07-01 17:53:00,
2013-07-01 14:00:00,63.0,58.0,-100.00,ENE,67,3.0,-999.0,83,0.14,,,-99.99,56.840000,,2013-07-01 18:00:00,
2013-07-01 14:53:00,63.0,58.0,-100.00,ENE,67,3.0,-999.0,83,0.14,,,-99.99,56.840000,,2013-07-01 18:53:00,
2013-07-01 15:00:00,62.0,59.0,-100.00,ENE,67,4.0,-999.0,89,0.24,,,-99.99,33.639999,,2013-07-01 19:00:00,
2013-07-01 15:44:00,62.0,59.0,-100.00,ENE,67,4.0,-999.0,89,0.24,,,-99.99,33.639999,,2013-07-01 19:44:00,
2013-07-01 15:53:00,62.0,59.0,-100.00,ENE,67,4.0,-999.0,89,0.24,,,-99.99,33.639999,,2013-07-01 19:53:00,
2013-07-01 16:00:00,61.0,57.0,-100.00,ENE,67,4.0,-999.0,88,0.14,,,-99.99,98.599998,,2013-07-01 20:00:00,
2013-07-01 16:43:00,61.0,57.0,-100.00,ENE,67,4.0,-999.0,88,0.14,,,-99.99,98.599998,,2013-07-01 20:43:00,
2013-07-01 16:52:00,61.0,57.0,-100.00,ENE,67,4.0,-999.0,88,0.14,,,-99.99,98.599998,,2013-07-01 20:52:00,
2013-07-01 17:00:00,62.0,57.0,-100.00,ENE,67,6.0,-999.0,84,0.01,,,-99.99,332.920013,,2013-07-01 21:00:00,
2013-07-01 17:44:00,62.0,57.0,-100.00,ENE,67,6.0,-999.0,84,0.01,,,-99.99,332.920013,,2013-07-01 21:44:00,
2013-07-01 17:53:00,62.0,57.0,-100.00,ENE,67,6.0,-999.0,84,0.01,,,-99.99,332.920013,,2013-07-01 21:53:00,
2013-07-01 18:00:00,63.0,56.0,-100.00,ENE,67,5.0,-999.0,78,-99.99,,,-99.99,150.800003,,2013-07-01 22:00:00,
2013-07-01 18:43:00,63.0,56.0,-100.00,ENE,67,5.0,-999.0,78,-99.99,,,-99.99,150.800003,,2013-07-01 22:43:00,
2013-07-01 18:53:00,63.0,56.0,-100.00,ENE,67,5.0,-999.0,78,-99.99,,,-99.99,150.800003,,2013-07-01 22:53:00,
2013-07-01 19:00:00,63.0,56.0,-100.00,ENE,67,3.0,-999.0,76,-99.99,,,-99.99,112.519997,,2013-07-01 23:00:00,
2013-07-01 19:44:00,63.0,56.0,-100.00,ENE,67,3.0,-999.0,76,-99.99,,,-99.99,112.519997,,2013-07-01 23:44:00,
2013-07-01 19:53:00,63.0,56.0,-100.00,ENE,67,3.0,-999.0,76,-99.99,,,-99.99,112.519997,,2013-07-01 23:53:00,
2013-07-01 20:00:00,63.0,56.0,-100.00,ENE,67,6.0,-999.0,76,-99.99,,,-99.99,88.160004,,2013-07-02 00:00:00,
2013-07-01 20:43:00,63.0,56.0,-100.00,ENE,67,6.0,-999.0,76,-99.99,,,-99.99,88.160004,,2013-07-02 00:43:00,
2013-07-01 20:53:00,63.0,56.0,-100.00,ENE,67,6.0,-999.0,76,-99.99,,,-99.99,88.160004,,2013-07-02 00:53:00,
2013-07-01 21:00:00,61.0,56.0,-100.00,ENE,67,6.0,-999.0,82,0.14,,,-99.99,16.240000,,2013-07-02 01:00:00,
2013-07-01 21:43:00,61.0,56.0,-100.00,ENE,67,6.0,-999.0,82,0.14,,,-99.99,16.240000,,2013-07-02 01:43:00,
2013-07-01 21:53:00,61.0,56.0,-100.00,ENE,67,6.0,-999.0,82,0.14,,,-99.99,16.240000,,2013-07-02 01:53:00,
2013-07-01 22:00:00,59.0,56.0,-100.00,NE,45,5.0,-999.0,88,0.03,,,-99.99,1.160000,,2013-07-02 02:00:00,
2013-07-01 22:43:00,59.0,56.0,-100.00,NE,45,5.0,-999.0,88,0.03,,,-99.99,1.160000,,2013-07-02 02:43:00,
2013-07-01 22:53:00,59.0,56.0,-100.00,NE,45,5.0,-999.0,88,0.03,,,-99.99,1.160000,,2013-07-02 02:53:00,
2013-07-01 23:00:00,59.0,56.0,-100.00,NNE,22,2.0,-999.0,88,-99.99,,,-99.99,0.000000,,2013-07-02 03:00:00,
2013-07-01 23:53:00,59.0,56.0,-100.00,NNE,22,2.0,-999.0,88,-99.99,,,-99.99,0.000000,,2013-07-02 03:53:00,